Location: Buisson
(44.2787°N, 4.9969°E)
Time: 06:58:19
(UTC+00:00)

PSLV R/B - Pass Details

Date: 18 April 2021
Orbit: 593 x 629 km, 98.0° (Epoch: 05 May)

Event Time Altitude Azimuth Distance (km) Brightness Sun altitude
Rises 04:16:43 0° 7° (N) 2,873 7.4 -6.7°
Reaches altitude 10° 04:18:57 10° 3° (N) 1,959 6.5 -6.3°
Maximum altitude 04:23:03 49° 288° (WNW) 775 3.8 -5.6°
Drops below altitude 10° 04:27:06 10° 213° (SSW) 1,928 5.6 -4.9°
Sets 04:29:17 0° 208° (SSW) 2,822 6.5 -4.6°
